Houlton, ME

4:33 PM EST on February 22, 2017 (GMT -0500)
Houlton International

Weather History for KHUL - May, 2013

Change the Weather History Date:

Monday, May 13, 2013

  Actual Average Record
Temperature  
Mean Temperature 43 °F 50 °F  
Max Temperature 55 °F 63 °F 79 °F (1978)
Min Temperature 30 °F 38 °F 25 °F (1972)
Degree Days  
Heating Degree Days 22 15  
Month to date heating degree days 126 218  
Since 1 July heating degree days 8103 8791  
Cooling Degree Days 0 0  
Month to date cooling degree days 0 0  
Year to date cooling degree days 0 0  
Moisture  
Dew Point 32 °F    
Average Humidity 66    
Maximum Humidity 96    
Minimum Humidity 36    
Precipitation  
Precipitation 0.01 in 0.11 in 0.81 in (1981)
Month to date precipitation 0.56 1.33  
Year to date precipitation 6.08 12.66  
Sea Level Pressure  
Sea Level Pressure 29.80 in    
Wind  
Wind Speed 8 mph (SW)    
Max Wind Speed 1 mph    
Max Gust Speed 2 mph    
Visibility 10 miles    
Events Rain    
T = Trace of Precipitation, MM = Missing Value Source: NWS Daily Summary

Daily Weather History Graph

Daily Weather History Graph

Search for Another Location

Airport or City:

Trip Planner

Search our weather history database for the weather conditions in past years. The results will help you decide how hot, cold, wet, or windy it might be!

Date:

Astronomy

May. 13, 2013 Rise Set
Actual Time 5:00 AM EDT 7:54 PM EDT
Civil Twilight 4:25 AM EDT 8:30 PM EDT
Nautical Twilight 3:41 AM EDT 9:14 PM EDT
Astronomical Twilight 2:48 AM EDT 10:08 PM EDT
Moon 7:42 AM EDT (5/13) 11:01 PM EDT (5/13)
Length of Visible Light 16h 04m
Length of Day
14h 54m
Waxing Crescent, 12% of the Moon is Illuminated
May 13
Waxing Crescent
May 18
First Quarter
May 25
Full
May 31
Last Quarter
Jun 8
New

Hourly Weather History & Observations

Time (EDT) Temp. Windchill Dew Point Humidity Pressure Visibility Wind Dir Wind Speed Gust Speed Precip Events Conditions
12:53 AM 46.0 °F 43.9 °F 42.1 °F 86% 29.65 in 10.0 mi SSW 4.6 mph - N/A   Overcast
1:53 AM 46.0 °F 40.6 °F 35.1 °F 66% 29.66 in 10.0 mi WNW 11.5 mph 17.3 mph 0.00 in Rain Light Rain
2:53 AM 44.1 °F 41.5 °F 37.0 °F 76% 29.68 in 10.0 mi SSW 4.6 mph - 0.01 in   Overcast
3:53 AM 41.0 °F - 37.9 °F 89% 29.67 in 10.0 mi Calm Calm - N/A   Overcast
4:53 AM 39.9 °F 36.7 °F 37.0 °F 89% 29.68 in 5.0 mi South 4.6 mph - N/A   Scattered Clouds
5:53 AM 39.0 °F 34.8 °F 35.1 °F 86% 29.71 in 10.0 mi SSW 5.8 mph - N/A   Clear
6:53 AM 43.0 °F - 35.1 °F 74% 29.72 in 10.0 mi Calm Calm - N/A   Clear
7:53 AM 46.0 °F 43.1 °F 35.1 °F 66% 29.73 in 10.0 mi SSW 5.8 mph - N/A   Partly Cloudy
8:53 AM 46.0 °F 40.2 °F 34.0 °F 63% 29.75 in 10.0 mi SW 12.7 mph 20.7 mph N/A   Clear
9:53 AM 48.0 °F - 30.9 °F 52% 29.76 in 10.0 mi WSW 16.1 mph 27.6 mph N/A   Mostly Cloudy
10:53 AM 48.9 °F - 30.9 °F 50% 29.78 in 10.0 mi SW 13.8 mph - N/A   Mostly Cloudy
11:53 AM 48.9 °F - 30.0 °F 48% 29.79 in 10.0 mi WSW 12.7 mph 24.2 mph N/A   Overcast
12:53 PM 54.0 °F - 30.9 °F 41% 29.79 in 10.0 mi WSW 20.7 mph 24.2 mph N/A   Mostly Cloudy
1:53 PM 51.1 °F - 28.0 °F 41% 29.82 in 10.0 mi WSW 15.0 mph 25.3 mph N/A   Mostly Cloudy
2:53 PM 50.0 °F - 28.0 °F 43% 29.83 in 10.0 mi SW 10.4 mph 18.4 mph N/A   Overcast
4:53 PM 52.0 °F - 28.0 °F 40% 29.85 in 10.0 mi WSW 10.4 mph - N/A   Scattered Clouds
5:53 PM 51.1 °F - 27.0 °F 39% 29.86 in 10.0 mi SW 9.2 mph - N/A   Mostly Cloudy
6:53 PM 50.0 °F - 25.0 °F 38% 29.88 in 10.0 mi WSW 8.1 mph - N/A   Overcast
7:53 PM 46.4 °F 43.5 °F 26.6 °F 46% 29.89 in 10.0 mi SW 5.8 mph - N/A   Mostly Cloudy
8:53 PM 39.9 °F - 33.1 °F 77% 29.93 in 10.0 mi Calm Calm - N/A   Clear
9:53 PM 35.1 °F - 32.0 °F 89% 29.96 in 10.0 mi Calm Calm - N/A   Partly Cloudy
10:53 PM 33.1 °F - 32.0 °F 96% 29.98 in 10.0 mi Calm Calm - N/A   Partly Cloudy
11:53 PM 32.0 °F - 30.9 °F 96% 29.98 in 10.0 mi Calm Calm - N/A   Clear